STARLINK AN

Last updated on Sat Jul 15 2023 00:02:05 GMT+0000 (Coordinated Universal Time)

1 57254U 23094AN 23195.75001157 -.01068213 34049-3 -30354-2 0 9990 2 57254 42.9940 276.0427 0024615 199.6474 244.1383 15.91873390 1304

Satellite not in orbit